Time,TemperatureF,DewpointF,PressureIn,WindDirection,WindDirectionDegrees,WindSpeedMPH,WindSpeedGustMPH,Humidity,HourlyPrecipIn,Conditions,Clouds,dailyrainin,SoftwareType,DateUTC
2013-01-26 00:11:00,22.4,12.0,30.00,WSW,249,0.0,5.0,65,0.00,,,0.00,weatherlink.com 1.10,2013-01-26 05:11:00,
2013-01-26 00:26:00,22.2,14.0,30.00,NW,316,0.0,3.0,72,0.00,,,0.00,weatherlink.com 1.10,2013-01-26 05:26:00,
2013-01-26 00:41:00,22.0,15.0,30.00,ESE,115,0.0,2.0,75,0.00,,,0.00,weatherlink.com 1.10,2013-01-26 05:41:00,
2013-01-26 00:56:00,21.9,16.0,29.99,NE,53,0.0,2.0,78,0.00,,,0.00,weatherlink.com 1.10,2013-01-26 05:56:00,
2013-01-26 01:11:00,21.7,17.0,29.98,ENE,77,1.0,2.0,81,0.00,,,0.00,weatherlink.com 1.10,2013-01-26 06:11:00,
2013-01-26 01:26:00,21.5,17.0,29.98,NE,49,2.0,3.0,84,0.00,,,0.00,weatherlink.com 1.10,2013-01-26 06:26:00,
2013-01-26 01:41:00,21.6,18.0,29.97,East,79,1.0,3.0,87,0.00,,,0.00,weatherlink.com 1.10,2013-01-26 06:41:00,
2013-01-26 01:56:00,21.8,19.0,29.97,NE,49,2.0,3.0,88,0.00,,,0.00,weatherlink.com 1.10,2013-01-26 06:56:00,
2013-01-26 02:11:00,22.1,19.0,29.96,NE,52,2.0,3.0,89,0.00,,,0.00,weatherlink.com 1.10,2013-01-26 07:11:00,
2013-01-26 02:26:00,22.4,20.0,29.96,NE,53,1.0,4.0,90,0.00,,,0.00,weatherlink.com 1.10,2013-01-26 07:26:00,
2013-01-26 02:41:00,22.6,20.0,29.95,NE,34,0.0,4.0,90,0.00,,,0.00,weatherlink.com 1.10,2013-01-26 07:41:00,
2013-01-26 02:57:00,22.6,20.0,29.95,NE,39,0.0,3.0,90,0.00,,,0.00,weatherlink.com 1.10,2013-01-26 07:57:00,
2013-01-26 03:12:00,22.7,20.0,29.94,NE,56,1.0,3.0,90,0.00,,,0.00,weatherlink.com 1.10,2013-01-26 08:12:00,
2013-01-26 03:26:00,22.8,20.0,29.94,East,83,0.0,1.0,90,0.00,,,0.00,weatherlink.com 1.10,2013-01-26 08:26:00,
2013-01-26 03:41:00,22.7,20.0,29.94,SE,131,0.0,1.0,90,0.00,,,0.00,weatherlink.com 1.10,2013-01-26 08:41:00,
2013-01-26 03:56:00,22.7,20.0,29.94,SE,131,0.0,1.0,90,0.00,,,0.00,weatherlink.com 1.10,2013-01-26 08:56:00,
2013-01-26 04:11:00,22.7,20.0,29.93,SE,131,0.0,1.0,90,0.00,,,0.00,weatherlink.com 1.10,2013-01-26 09:11:00,
2013-01-26 04:26:00,22.9,21.0,29.93,South,180,0.0,1.0,91,0.00,,,0.00,weatherlink.com 1.10,2013-01-26 09:26:00,
2013-01-26 04:41:00,23.1,21.0,29.93,ENE,63,1.0,2.0,91,0.00,,,0.00,weatherlink.com 1.10,2013-01-26 09:41:00,
2013-01-26 04:56:00,23.1,21.0,29.93,NE,53,1.0,2.0,91,0.00,,,0.00,weatherlink.com 1.10,2013-01-26 09:56:00,
2013-01-26 05:11:00,23.0,21.0,29.93,NNW,335,0.0,2.0,91,0.00,,,0.00,weatherlink.com 1.10,2013-01-26 10:11:00,
2013-01-26 05:26:00,22.9,21.0,29.94,East,98,0.0,1.0,91,0.00,,,0.00,weatherlink.com 1.10,2013-01-26 10:26:00,
2013-01-26 05:41:00,23.0,21.0,29.94,East,82,0.0,2.0,91,0.00,,,0.00,weatherlink.com 1.10,2013-01-26 10:41:00,
2013-01-26 05:57:00,22.7,20.0,29.94,South,183,1.0,2.0,90,0.00,,,0.00,weatherlink.com 1.10,2013-01-26 10:57:00,
2013-01-26 06:11:00,22.5,20.0,29.95,West,277,0.0,5.0,89,0.00,,,0.00,weatherlink.com 1.10,2013-01-26 11:11:00,
2013-01-26 06:26:00,21.9,19.0,29.95,West,259,1.0,2.0,89,0.00,,,0.00,weatherlink.com 1.10,2013-01-26 11:26:00,
2013-01-26 06:41:00,21.2,19.0,29.94,WNW,290,0.0,4.0,89,0.00,,,0.00,weatherlink.com 1.10,2013-01-26 11:41:00,
2013-01-26 06:57:00,20.5,18.0,29.95,WNW,284,0.0,1.0,89,0.00,,,0.00,weatherlink.com 1.10,2013-01-26 11:57:00,
2013-01-26 07:12:00,20.2,17.0,29.95,SW,235,0.0,2.0,88,0.00,,,0.00,weatherlink.com 1.10,2013-01-26 12:12:00,
2013-01-26 07:27:00,20.5,17.0,29.95,WNW,297,0.0,2.0,87,0.00,,,0.00,weatherlink.com 1.10,2013-01-26 12:27:00,
2013-01-26 07:42:00,21.3,18.0,29.95,North,350,0.0,3.0,86,0.00,,,0.00,weatherlink.com 1.10,2013-01-26 12:42:00,
2013-01-26 07:57:00,22.8,19.0,29.95,NW,315,2.0,6.0,85,0.00,,,0.00,weatherlink.com 1.10,2013-01-26 12:57:00,
2013-01-26 08:12:00,24.5,19.0,29.95,WNW,283,1.0,9.0,80,0.00,,,0.00,weatherlink.com 1.10,2013-01-26 13:12:00,
2013-01-26 08:27:00,25.1,19.0,29.95,West,271,2.0,9.0,78,0.00,,,0.00,weatherlink.com 1.10,2013-01-26 13:27:00,
2013-01-26 08:42:00,25.7,19.0,29.96,West,259,8.0,8.0,77,0.00,,,0.00,weatherlink.com 1.10,2013-01-26 13:42:00,
2013-01-26 08:57:00,26.0,19.0,29.95,SW,235,3.0,9.0,76,0.00,,,0.00,weatherlink.com 1.10,2013-01-26 13:57:00,
2013-01-26 09:12:00,26.5,20.0,29.96,West,278,6.0,7.0,75,0.00,,,0.00,weatherlink.com 1.10,2013-01-26 14:12:00,
2013-01-26 09:27:00,25.9,19.0,29.96,SE,133,5.0,11.0,76,0.00,,,0.00,weatherlink.com 1.10,2013-01-26 14:27:00,
2013-01-26 09:42:00,25.7,20.0,29.96,SSW,212,2.0,11.0,78,0.00,,,0.00,weatherlink.com 1.10,2013-01-26 14:42:00,
2013-01-26 09:57:00,25.3,21.0,29.96,WSW,248,2.0,12.0,83,0.00,,,0.00,weatherlink.com 1.10,2013-01-26 14:57:00,
2013-01-26 10:12:00,26.1,22.0,29.96,WSW,252,1.0,8.0,83,0.00,,,0.00,weatherlink.com 1.10,2013-01-26 15:12:00,
2013-01-26 10:27:00,26.2,21.0,29.96,WNW,288,7.0,10.0,82,0.00,,,0.00,weatherlink.com 1.10,2013-01-26 15:27:00,
2013-01-26 10:42:00,26.0,22.0,29.97,NW,306,4.0,13.0,83,0.00,,,0.00,weatherlink.com 1.10,2013-01-26 15:42:00,
2013-01-26 10:57:00,26.6,22.0,29.96,SSW,207,5.0,13.0,81,0.00,,,0.00,weatherlink.com 1.10,2013-01-26 15:57:00,
2013-01-26 11:12:00,26.6,21.0,29.96,WSW,258,2.0,17.0,79,0.00,,,0.00,weatherlink.com 1.10,2013-01-26 16:12:00,
2013-01-26 11:27:00,26.5,21.0,29.96,South,174,3.0,10.0,80,0.00,,,0.00,weatherlink.com 1.10,2013-01-26 16:27:00,
2013-01-26 11:42:00,26.6,21.0,29.95,West,279,4.0,9.0,79,0.00,,,0.00,weatherlink.com 1.10,2013-01-26 16:42:00,
2013-01-26 11:57:00,26.2,21.0,29.95,WSW,248,9.0,17.0,80,0.00,,,0.00,weatherlink.com 1.10,2013-01-26 16:57:00,
2013-01-26 12:12:00,26.4,21.0,29.94,West,271,5.0,13.0,79,0.00,,,0.00,weatherlink.com 1.10,2013-01-26 17:12:00,
2013-01-26 12:27:00,26.5,21.0,29.94,WSW,244,7.0,10.0,78,0.00,,,0.00,weatherlink.com 1.10,2013-01-26 17:27:00,
2013-01-26 12:42:00,26.6,21.0,29.95,SW,219,2.0,10.0,78,0.00,,,0.00,weatherlink.com 1.10,2013-01-26 17:42:00,
2013-01-26 13:12:00,26.4,20.0,29.94,South,171,4.0,12.0,78,0.00,,,0.00,weatherlink.com 1.10,2013-01-26 18:12:00,
2013-01-26 13:27:00,26.1,19.0,29.94,SW,219,10.0,12.0,75,0.00,,,0.00,weatherlink.com 1.10,2013-01-26 18:27:00,
2013-01-26 13:42:00,26.1,19.0,29.95,WSW,239,5.0,13.0,73,0.00,,,0.00,weatherlink.com 1.10,2013-01-26 18:42:00,
2013-01-26 13:58:00,25.8,18.0,29.96,WSW,255,10.0,15.0,73,0.00,,,0.00,weatherlink.com 1.10,2013-01-26 18:58:00,
2013-01-26 14:13:00,25.4,18.0,29.97,SW,224,4.0,11.0,73,0.00,,,0.00,weatherlink.com 1.10,2013-01-26 19:13:00,
2013-01-26 14:27:00,25.3,17.0,29.97,WSW,246,7.0,12.0,70,0.00,,,0.00,weatherlink.com 1.10,2013-01-26 19:27:00,
2013-01-26 14:42:00,25.4,17.0,29.98,SSE,167,1.0,12.0,69,0.00,,,0.00,weatherlink.com 1.10,2013-01-26 19:42:00,
2013-01-26 14:58:00,25.3,16.0,29.97,South,176,3.0,10.0,69,0.00,,,0.00,weatherlink.com 1.10,2013-01-26 19:58:00,
2013-01-26 15:12:00,25.4,15.0,29.98,West,264,4.0,16.0,66,0.00,,,0.00,weatherlink.com 1.10,2013-01-26 20:12:00,
2013-01-26 15:27:00,25.2,15.0,29.99,West,269,6.0,10.0,64,0.00,,,0.00,weatherlink.com 1.10,2013-01-26 20:27:00,
2013-01-26 15:42:00,25.0,14.0,29.99,SSE,162,3.0,10.0,62,0.00,,,0.00,weatherlink.com 1.10,2013-01-26 20:42:00,
2013-01-26 15:57:00,24.1,13.0,30.00,West,267,1.0,9.0,62,0.00,,,0.00,weatherlink.com 1.10,2013-01-26 20:57:00,
2013-01-26 16:12:00,23.7,13.0,30.01,NW,325,4.0,9.0,63,0.00,,,0.00,weatherlink.com 1.10,2013-01-26 21:12:00,
2013-01-26 16:27:00,23.4,11.0,30.01,WNW,299,2.0,10.0,60,0.00,,,0.00,weatherlink.com 1.10,2013-01-26 21:27:00,
2013-01-26 16:42:00,23.1,11.0,30.01,WSW,256,5.0,5.0,60,0.00,,,0.00,weatherlink.com 1.10,2013-01-26 21:42:00,
2013-01-26 16:58:00,22.9,11.0,30.03,WSW,256,1.0,6.0,60,0.00,,,0.00,weatherlink.com 1.10,2013-01-26 21:58:00,
2013-01-26 17:13:00,22.7,11.0,30.03,WSW,242,1.0,6.0,60,0.00,,,0.00,weatherlink.com 1.10,2013-01-26 22:13:00,
2013-01-26 17:28:00,22.5,9.0,30.04,West,280,4.0,4.0,57,0.00,,,0.00,weatherlink.com 1.10,2013-01-26 22:28:00,
2013-01-26 17:43:00,22.3,8.0,30.04,SW,216,1.0,7.0,54,0.00,,,0.00,weatherlink.com 1.10,2013-01-26 22:43:00,
2013-01-26 17:58:00,22.5,6.0,30.04,WSW,253,3.0,6.0,49,0.00,,,0.00,weatherlink.com 1.10,2013-01-26 22:58:00,
2013-01-26 18:13:00,22.5,6.0,30.04,WSW,246,1.0,5.0,50,0.00,,,0.00,weatherlink.com 1.10,2013-01-26 23:13:00,
2013-01-26 18:28:00,22.5,6.0,30.05,WSW,243,3.0,9.0,50,0.00,,,0.00,weatherlink.com 1.10,2013-01-26 23:28:00,
2013-01-26 18:43:00,22.5,7.0,30.06,WNW,290,3.0,8.0,51,0.00,,,0.00,weatherlink.com 1.10,2013-01-26 23:43:00,
2013-01-26 18:58:00,22.5,8.0,30.06,WSW,256,2.0,11.0,53,0.00,,,0.00,weatherlink.com 1.10,2013-01-26 23:58:00,
2013-01-26 19:13:00,22.1,6.0,30.07,NW,320,4.0,10.0,51,0.00,,,0.00,weatherlink.com 1.10,2013-01-27 00:13:00,
2013-01-26 19:28:00,22.0,6.0,30.07,WNW,286,4.0,11.0,51,0.00,,,0.00,weatherlink.com 1.10,2013-01-27 00:28:00,
2013-01-26 19:43:00,22.3,5.0,30.07,West,259,2.0,16.0,48,0.00,,,0.00,weatherlink.com 1.10,2013-01-27 00:43:00,
2013-01-26 19:58:00,22.5,6.0,30.08,SSW,195,2.0,9.0,49,0.00,,,0.00,weatherlink.com 1.10,2013-01-27 00:58:00,
2013-01-26 20:13:00,22.5,6.0,30.08,East,87,2.0,19.0,49,0.00,,,0.00,weatherlink.com 1.10,2013-01-27 01:13:00,
2013-01-26 20:28:00,22.3,6.0,30.09,South,177,6.0,16.0,49,0.00,,,0.00,weatherlink.com 1.10,2013-01-27 01:28:00,
2013-01-26 20:43:00,21.9,4.0,30.09,SW,226,10.0,14.0,47,0.00,,,0.00,weatherlink.com 1.10,2013-01-27 01:43:00,
2013-01-26 20:58:00,21.7,5.0,30.09,North,349,2.0,11.0,49,0.00,,,0.00,weatherlink.com 1.10,2013-01-27 01:58:00,
2013-01-26 21:13:00,21.5,6.0,30.09,SW,224,4.0,11.0,51,0.00,,,0.00,weatherlink.com 1.10,2013-01-27 02:13:00,
2013-01-26 21:28:00,21.3,6.0,30.10,SW,236,2.0,9.0,51,0.00,,,0.00,weatherlink.com 1.10,2013-01-27 02:28:00,
2013-01-26 21:43:00,20.8,5.0,30.10,SE,146,5.0,9.0,51,0.00,,,0.00,weatherlink.com 1.10,2013-01-27 02:43:00,
2013-01-26 21:59:00,20.5,6.0,30.11,South,180,1.0,12.0,54,0.00,,,0.00,weatherlink.com 1.10,2013-01-27 02:59:00,
2013-01-26 22:14:00,20.2,7.0,30.11,SW,222,2.0,17.0,58,0.00,,,0.00,weatherlink.com 1.10,2013-01-27 03:14:00,
2013-01-26 22:28:00,20.1,8.0,30.12,SW,226,1.0,11.0,60,0.00,,,0.00,weatherlink.com 1.10,2013-01-27 03:28:00,
2013-01-26 22:44:00,20.3,9.0,30.13,WSW,250,2.0,17.0,62,0.00,,,0.00,weatherlink.com 1.10,2013-01-27 03:44:00,
2013-01-26 22:59:00,20.3,9.0,30.13,WNW,285,4.0,15.0,62,0.00,,,0.00,weatherlink.com 1.10,2013-01-27 03:59:00,
2013-01-26 23:14:00,20.2,9.0,30.14,SSE,152,3.0,16.0,61,0.00,,,0.00,weatherlink.com 1.10,2013-01-27 04:14:00,
2013-01-26 23:29:00,20.0,9.0,30.14,WSW,255,2.0,13.0,63,0.00,,,0.00,weatherlink.com 1.10,2013-01-27 04:29:00,
2013-01-26 23:43:00,19.9,9.0,30.14,West,269,0.0,14.0,62,0.00,,,0.00,weatherlink.com 1.10,2013-01-27 04:43:00,
2013-01-26 23:58:00,19.8,9.0,30.14,WSW,242,7.0,31.0,62,0.00,,,0.00,weatherlink.com 1.10,2013-01-27 04:58:00,